Tracking 27382 objects as of 4-Jun-2023
HD Live streaming from Space Station
objects crossing your sky now

ATLAS 5 CENTAUR DEB

Track ATLAS 5 CENTAUR DEB now!


NORAD ID: 43991
Int'l Code: 2014-055AW
Perigee: 9,190.5 km
Apogee: 34,651.0 km
Inclination: 21.0 °
Period: 789.3 minutes
Semi major axis: 28291 km
RCS: Unknown
Launch date: September 17, 2014
Source: United States (US)
Launch site: AIR FORCE EASTERN TEST RANGE (AFETR)

Note: This is SATELLITE DEBRIS
Your satellite tracking list
Your tracking list is empty




NASA's NSSDC Master Catalog

Two Line Element Set (TLE):
1 43991U 14055AW  23155.05928400 -.00000075  00000-0  00000-0 0  9998
2 43991  21.0120 271.2615 4499635 304.4573  20.9110  1.82437273 31086
Source of the keplerian elements: AFSPC